| time (UTC) | temp F | wind direction | speed knots | gust knots | rain 1hr in | rain 24hr in | rain mn in | humidity % | barometer mb |
| 20260505021303 | 68 | 243 | 0.0 | 0.0 | 0.00 | 0.00 | 0.00 | 81 | 1013.5 |
| 20260505015303 | 68 | 251 | 0.0 | 0.0 | 0.00 | 0.00 | 0.00 | 79 | 1013.2 |
| 20260505013403 | 69 | 246 | 0.0 | 0.0 | 0.00 | 0.00 | 0.00 | 79 | 1013.5 |
| 20260505011303 | 70 | 248 | 0.0 | 0.0 | 0.00 | 0.00 | 0.00 | 76 | 1013.2 |
| 20260505005304 | 71 | 232 | 0.0 | 0.0 | 0.00 | 0.00 | 0.00 | 74 | 1013.2 |
| 20260505003403 | 73 | 203 | 2.6 | 4.3 | 0.00 | 0.00 | 0.00 | 68 | 1013.2 |
| 20260505001304 | 74 | 202 | 2.6 | 4.3 | 0.00 | 0.00 | 0.00 | 66 | 1013.2 |
| 20260504235304 | 76 | 250 | 0.0 | 0.0 | 0.00 | 0.00 | 0.00 | 62 | 1013.5 |
| 20260504233403 | 78 | 261 | 1.7 | 2.6 | 0.00 | 0.00 | 0.00 | 58 | 1013.5 |
| 20260504231303 | 79 | 208 | 6.1 | 8.7 | 0.00 | 0.00 | 0.00 | 56 | 1013.9 |
| 20260504225304 | 80 | 232 | 0.0 | 0.0 | 0.00 | 0.00 | 0.00 | 54 | 1013.9 |
| 20260504223402 | 80 | 222 | 0.9 | 2.6 | 0.00 | 0.00 | 0.00 | 54 | 1014.2 |
| 20260504221303 | 81 | 162 | 2.6 | 4.3 | 0.00 | 0.00 | 0.00 | 56 | 1014.6 |
| 20260504215304 | 80 | 207 | 0.9 | 2.6 | 0.00 | 0.00 | 0.00 | 54 | 1014.6 |
| 20260504213404 | 82 | 12 | 0.0 | 0.0 | 0.00 | 0.00 | 0.00 | 51 | 1014.9 |
| 20260504211303 | 79 | 236 | 1.7 | 2.6 | 0.00 | 0.00 | 0.00 | 51 | 1015.2 |
| 20260504205304 | 81 | 264 | 0.9 | 2.6 | 0.00 | 0.00 | 0.00 | 52 | 1015.2 |
| 20260504203432 | 80 | 198 | 6.1 | 7.0 | 0.00 | 0.00 | 0.00 | 52 | 1015.9 |
| 20260504201333 | 79 | 202 | 4.3 | 7.0 | 0.00 | 0.00 | 0.00 | 51 | 1015.9 |
| 20260504195304 | 79 | 231 | 6.1 | 8.7 | 0.00 | 0.00 | 0.00 | 49 | 1016.3 |
| 20260504193403 | 79 | 229 | 1.7 | 2.6 | 0.00 | 0.00 | 0.00 | 47 | 1016.6 |
| 20260504191302 | 78 | 225 | 1.7 | 2.6 | 0.00 | 0.00 | 0.00 | 46 | 1016.9 |
| 20260504185304 | 78 | 218 | 6.1 | 8.7 | 0.00 | 0.00 | 0.00 | 46 | 1017.3 |
| 20260504183403 | 78 | 215 | 7.8 | 8.7 | 0.00 | 0.00 | 0.00 | 48 | 1017.6 |
| 20260504181303 | 77 | 198 | 2.6 | 4.3 | 0.00 | 0.00 | 0.00 | 47 | 1017.9 |
| 20260504175304 | 77 | 322 | 0.9 | 2.6 | 0.00 | 0.00 | 0.00 | 50 | 1017.9 |
| 20260504173403 | 76 | 191 | 5.2 | 8.7 | 0.00 | 0.00 | 0.00 | 53 | 1018.3 |
| 20260504171302 | 75 | 239 | 6.1 | 7.0 | 0.00 | 0.00 | 0.00 | 51 | 1018.6 |
| 20260504141302 | 66 | 180 | 2.6 | 4.3 | 0.00 | 0.00 | 0.00 | 76 | 1019.6 |
| 20260504080603 | 55 | 232 | 0.0 | 0.0 | 0.00 | 0.00 | 0.00 | 96 | 1019.3 |
| 20260504050603 | 56 | 295 | 0.0 | 0.0 | 0.00 | 0.00 | 0.00 | 96 | 1020.3 |
| 20260504044703 | 56 | 240 | 0.0 | 0.0 | 0.00 | 0.00 | 0.00 | 96 | 1020.7 |
| 20260504042703 | 56 | 250 | 0.0 | 0.0 | 0.00 | 0.00 | 0.00 | 96 | 1020.7 |
| 20260504040632 | 56 | 259 | 0.0 | 0.0 | 0.00 | 0.00 | 0.00 | 96 | 1020.7 |
| 20260504034702 | 57 | 258 | 0.0 | 0.0 | 0.00 | 0.00 | 0.00 | 95 | 1020.7 |
| 20260504032733 | 57 | 257 | 0.0 | 0.0 | 0.00 | 0.00 | 0.00 | 95 | 1020.7 |
| 20260504030603 | 57 | 256 | 0.0 | 0.0 | 0.00 | 0.00 | 0.00 | 94 | 1020.7 |
| 20260504024703 | 59 | 257 | 0.0 | 0.0 | 0.00 | 0.00 | 0.00 | 93 | 1020.7 |